Change the Weather History Date:

Friday, October 25, 2013

  Actual Average Record
Temperature  
Mean Temperature 38 °F -  
Max Temperature 53 °F 54 °F 72 °F (2014)
Min Temperature 23 °F 36 °F 23 °F (2013)
Degree Days  
Heating Degree Days 27    
Moisture  
Dew Point 26 °F    
Average Humidity 60    
Maximum Humidity 89    
Minimum Humidity 36    
Precipitation  
Precipitation 0.00 in - - ()
Sea Level Pressure  
Sea Level Pressure 30.20 in    
Wind  
Wind Speed 6 mph (WSW)    
Max Wind Speed 20 mph    
Max Gust Speed 33 mph    
Visibility 10 miles    
Events      
Averages and records for this station are not official NWS values.
T = Trace of Precipitation, MM = Missing Value Source: NWS Daily Summary

Daily Weather History Graph

Daily Weather History Graph

Search for Another Location

Airport or City:

Trip Planner

Search our weather history database for the weather conditions in past years. The results will help you decide how hot, cold, wet, or windy it might be!

Date:

Astronomy

Oct. 25, 2013 Rise Set
Actual Time 7:27 AM CDT 6:01 PM CDT
Civil Twilight 6:57 AM CDT 6:30 PM CDT
Nautical Twilight 6:24 AM CDT 7:04 PM CDT
Astronomical Twilight 5:51 AM CDT 7:37 PM CDT
Moon 11:19 PM CDT (10/25) 1:10 PM CDT (10/25)
Length of Visible Light 11h 33m
Length of Day
10h 34m
Waning Gibbous, 62% of the Moon is Illuminated
Oct 25
Waning Gibbous
Oct 26
Last Quarter
Nov 3
New
Nov 9
First Quarter
Nov 17
Full

Hourly Weather History & Observations

Time (CDT) Temp. Windchill Dew Point Humidity Pressure Visibility Wind Dir Wind Speed Gust Speed Precip Events Conditions
12:56 AM 27.0 °F 23.0 °F 23.0 °F 85% 30.33 in 10.0 mi West 3.5 mph - N/A   Clear
1:56 AM 28.0 °F - 24.1 °F 85% 30.35 in 10.0 mi Calm Calm - N/A   Clear
2:56 AM 23.0 °F - 19.9 °F 88% 30.36 in 10.0 mi Calm Calm - N/A   Clear
3:56 AM 24.1 °F - 21.0 °F 88% 30.36 in 10.0 mi Calm Calm - N/A   Mostly Cloudy
4:56 AM 26.1 °F - 23.0 °F 88% 30.36 in 10.0 mi Calm Calm - N/A   Overcast
5:56 AM 28.0 °F - 25.0 °F 88% 30.36 in 10.0 mi Calm Calm - N/A   Overcast
6:56 AM 28.9 °F - 26.1 °F 89% 30.36 in 10.0 mi Calm Calm - N/A   Mostly Cloudy
7:56 AM 28.0 °F - 25.0 °F 88% 30.36 in 9.0 mi Calm Calm - N/A   Mostly Cloudy
8:56 AM 32.0 °F - 28.0 °F 85% 30.36 in 10.0 mi Calm Calm - N/A   Clear
9:56 AM 37.9 °F 34.4 °F 28.9 °F 70% 30.36 in 10.0 mi WNW 4.6 mph - N/A   Clear
10:56 AM 43.0 °F 36.8 °F 28.9 °F 58% 30.33 in 10.0 mi West 11.5 mph - N/A   Clear
11:56 AM 46.0 °F 41.0 °F 28.9 °F 51% 30.29 in 10.0 mi WSW 10.4 mph 20.7 mph N/A   Clear
12:56 PM 48.9 °F - 28.0 °F 44% 30.24 in 10.0 mi West 12.7 mph 20.7 mph N/A   Clear
1:56 PM 51.1 °F - 28.0 °F 41% 30.20 in 10.0 mi West 18.4 mph 26.5 mph N/A   Clear
2:56 PM 52.0 °F - 26.1 °F 37% 30.16 in 10.0 mi SW 12.7 mph 21.9 mph N/A   Mostly Cloudy
3:56 PM 53.1 °F - 27.0 °F 37% 30.12 in 10.0 mi SW 12.7 mph - N/A   Overcast
4:56 PM 52.0 °F - 26.1 °F 37% 30.07 in 10.0 mi SW 19.6 mph 31.1 mph N/A   Overcast
5:56 PM 51.1 °F - 25.0 °F 36% 30.04 in 10.0 mi SSW 13.8 mph 24.2 mph N/A   Scattered Clouds
6:56 PM 50.0 °F - 25.0 °F 38% 30.02 in 10.0 mi SW 11.5 mph 19.6 mph N/A   Clear
7:56 PM 48.9 °F - 27.0 °F 43% 29.98 in 10.0 mi SW 12.7 mph 19.6 mph N/A   Clear
8:56 PM 50.0 °F - 27.0 °F 41% 29.96 in 10.0 mi WSW 13.8 mph 24.2 mph N/A   Clear
9:56 PM 50.0 °F - 27.0 °F 41% 29.94 in 10.0 mi WSW 15.0 mph 33.4 mph N/A   Clear
10:56 PM 48.9 °F - 28.0 °F 44% 29.93 in 10.0 mi WSW 13.8 mph 24.2 mph N/A   Clear
11:56 PM 50.0 °F - 27.0 °F 41% 29.90 in 10.0 mi WSW 17.3 mph 25.3 mph N/A   Overcast